User: anonymous   Login
Location: Bucaritos
(10.0779°N, 67.0369°W)
Time: 19:04:42
(UTC+00:00)
Language:

CZ-2C R/B - Orbit

View from above orbital plane
View from above orbital plane
View from above satellite
View from above satellite

Ground track
Ground track

The orbit data is extracted from the following two-line orbital elements,

1 43173U 18011E   22278.36380196  .00034853  00000-0  76604-3 0  9995
2 43173  34.9873 147.3669 0113307 106.4841 254.8362 15.36369509262017
Epoch (UTC): 05 October 2022 08:43:52
Eccentricity: 0.0113307
inclination: 34.9873°
perigee height: 379 km
apogee height: 534 km
right ascension of ascending node: 147.3669°
argument of perigee: 106.4841°
revolutions per day: 15.36369509
mean anomaly at epoch: 254.8362°
orbit number at epoch: 26201

The dashed part of the orbit path shows where the satellite is in the earth's shadow,  

DLR